1522544400.74,64336,8.88,71666.0,-3.33,-4.01,-3.95,0,*5D
1522544402.0,64337,8.94,71668.3,-3.35,-4.01,-4.01,0,*50
1522544403.23,64338,8.94,71668.8,-3.35,-3.95,-4.01,0,*55
1522544404.46,64339,8.94,71664.8,-3.35,-3.95,-4.01,0,*54
1522544405.69,64340,8.94,71666.0,-3.33,-3.95,-3.95,0,*56
1522544406.92,64341,8.94,71666.8,-3.35,-3.95,-4.01,0,*5B
1522544408.15,64342,8.94,71666.8,-3.35,-4.01,-3.95,0,*58
1522544409.38,64343,8.88,71666.8,-3.35,-4.01,-3.95,0,*59
1522544410.64,64344,8.94,71670.3,-3.35,-4.01,-4.01,0,*54
1522544411.84,64345,8.94,71674.5,-3.35,-3.95,-3.95,0,*55
1522544413.1,64346,8.94,71672.5,-3.35,-4.01,-4.01,0,*56
1522544414.36,64347,8.94,71674.3,-3.35,-4.01,-4.01,0,*57
1522544415.59,64348,8.94,71668.5,-3.35,-3.95,-4.01,0,*52
1522544416.82,64349,8.94,71670.8,-3.35,-4.01,-3.95,0,*53
1522544418.1,64350,8.94,71668.0,-3.33,-4.01,-4.01,0,*57
1522544419.33,64351,8.94,71670.8,-3.35,-4.01,-3.95,0,*5A
1522544420.57,64352,8.94,71666.8,-3.35,-3.95,-4.01,0,*59
1522544421.8,64353,8.94,71666.8,-3.35,-3.95,-4.01,0,*58
1522544423.05,64354,8.94,71670.0,-3.33,-3.95,-4.01,0,*59
1522544424.29,64355,8.94,71666.8,-3.35,-3.95,-4.01,0,*5E
1522544425.49,64356,8.94,71664.5,-3.35,-3.95,-3.95,0,*57
1522544426.75,64357,8.94,71666.5,-3.33,-3.95,-4.01,0,*5A
1522544427.95,64358,8.94,71666.8,-3.35,-3.95,-3.95,0,*59
1522544429.18,64359,8.94,71666.0,-3.35,-4.01,-3.95,0,*52
1522544430.41,64360,8.94,71666.3,-3.35,-4.01,-3.95,0,*58
1522544431.62,64361,8.94,71670.3,-3.35,-3.95,-3.95,0,*53
1522544432.88,64362,8.94,71670.3,-3.35,-4.01,-4.01,0,*50
1522544434.13,64363,8.94,71668.0,-3.35,-4.01,-4.01,0,*51
1522544435.36,64364,8.94,71664.8,-3.35,-4.01,-3.95,0,*5C
1522544436.57,64365,8.94,71668.0,-3.35,-3.95,-3.95,0,*57
1522544437.77,64366,8.94,71666.3,-3.35,-3.95,-3.95,0,*54
1522544438.98,64367,8.94,71666.3,-3.35,-3.95,-3.95,0,*55
1522544440.21,64368,8.94,71666.3,-3.33,-3.95,-3.95,0,*5C
1522544441.42,64369,8.94,71664.5,-3.35,-3.95,-3.95,0,*5B
1522544442.67,64370,8.94,71666.5,-3.35,-4.01,-4.01,0,*53
1522544443.9,64371,8.94,71668.5,-3.35,-3.95,-4.01,0,*58
1522544445.16,64372,8.94,71668.5,-3.33,-4.01,-3.95,0,*5D
1522544446.36,64373,8.94,71668.8,-3.35,-3.95,-3.95,0,*50
1522544447.57,64374,8.94,71674.0,-3.35,-3.95,-3.95,0,*57
1522544448.77,64375,8.94,71674.3,-3.35,-3.95,-3.95,0,*56
1522544449.98,64376,8.94,71670.5,-3.35,-3.95,-3.95,0,*55
1522544451.21,64377,8.94,71668.8,-3.35,-4.01,-3.95,0,*5E
1522544452.42,64378,8.94,71670.5,-3.35,-3.95,-3.95,0,*5B
1522544453.65,64379,8.94,71670.0,-3.35,-3.95,-4.01,0,*50
1522544454.88,64380,8.94,71668.3,-3.35,-3.95,-4.01,0,*56
1522544456.08,64381,8.94,71668.5,-3.35,-3.95,-3.95,0,*5D
1522544457.33,64382,8.94,71670.0,-3.37,-4.05,-4.01,0,*58
1522544458.59,64383,8.94,71670.0,-3.35,-4.01,-4.01,0,*5F
1522544459.8,64384,8.94,71668.5,-3.35,-3.95,-3.95,0,*58
1522544461.03,64385,8.94,71670.0,-3.35,-4.01,-3.95,0,*53
1522544462.28,64386,8.94,71664.8,-3.33,-3.95,-4.01,0,*56
1522544463.54,64387,8.94,71664.5,-3.35,-4.01,-4.01,0,*5B
1522544464.75,64388,8.94,71666.3,-3.35,-3.95,-3.95,0,*54
1522544465.98,64389,8.94,71670.3,-3.35,-3.95,-4.01,0,*5F
1522544467.21,64390,8.94,71668.8,-3.35,-4.01,-3.95,0,*57
1522544468.44,64391,8.94,71668.3,-3.35,-3.95,-4.01,0,*56
1522544469.67,64392,8.88,71666.3,-3.35,-4.01,-3.95,0,*55
1522544470.9,64393,8.94,71670.8,-3.35,-3.95,-4.01,0,*54
1522544472.14,64394,8.94,71670.3,-3.35,-3.95,-4.01,0,*53
1522544473.34,64395,8.94,71668.5,-3.35,-3.95,-3.95,0,*58
1522544474.6,64396,8.94,71666.5,-3.33,-3.95,-4.01,0,*57
1522544475.83,64397,8.94,71670.3,-3.35,-4.01,-3.95,0,*50
1522544477.08,64398,8.94,71668.3,-3.35,-4.01,-4.01,0,*55
1522544478.32,64399,8.94,71664.3,-3.35,-3.95,-4.01,0,*5E
1522544479.55,64400,8.94,71664.8,-3.35,-3.95,-4.01,0,*59
1522544480.81,64401,8.94,71664.8,-3.35,-4.01,-4.01,0,*52
1522544482.06,64402,8.94,71664.8,-3.35,-4.01,-4.01,0,*51
1522544483.29,64403,8.94,71668.5,-3.35,-4.01,-3.95,0,*5A
1522544484.57,64404,8.94,71668.0,-3.37,-4.01,-4.01,0,*55
1522544485.86,64405,8.94,71666.3,-3.37,-4.01,-4.01,0,*54
1522544487.11,64406,8.94,71666.8,-3.35,-4.01,-4.01,0,*55
1522544488.32,64407,8.94,71668.0,-3.35,-3.95,-3.95,0,*54
1522544489.55,64408,8.94,71664.3,-3.35,-4.01,-3.95,0,*51
1522544490.77,64409,8.94,71666.5,-3.37,-4.05,-4.05,0,*58
1522544492.02,64410,8.94,71670.0,-3.37,-4.05,-4.01,0,*54
1522544493.28,64411,8.94,71664.3,-3.37,-4.01,-4.05,0,*55
1522544494.48,64412,8.94,71666.8,-3.35,-3.95,-3.95,0,*50
1522544495.71,64413,8.94,71666.3,-3.35,-4.01,-3.95,0,*5B
1522544496.97,64414,8.94,71670.8,-3.35,-4.01,-4.01,0,*56
1522544498.2,64415,8.88,71666.5,-3.35,-3.95,-4.01,0,*5D
1522544499.44,64416,8.88,71668.0,-3.35,-3.95,-4.01,0,*5E
1522544500.72,64417,8.94,71670.5,-3.37,-4.01,-4.01,0,*57
1522544501.94,64418,8.94,71666.3,-3.37,-4.05,-4.05,0,*58
1522544503.17,64419,8.94,71670.5,-3.35,-4.01,-3.95,0,*51
1522544504.43,64420,8.94,71670.8,-3.35,-4.01,-4.01,0,*51
1522544505.71,64421,8.94,71670.0,-3.37,-4.01,-4.01,0,*52
1522544506.94,64422,8.94,71668.8,-3.37,-4.05,-4.05,0,*51
1522544508.14,64423,8.94,71666.5,-3.35,-3.95,-3.95,0,*52
1522544509.37,64424,8.94,71670.5,-3.35,-4.01,-3.95,0,*5F
1522544510.63,64425,8.94,71668.0,-3.37,-4.01,-4.05,0,*52
1522544511.88,64426,8.94,71670.0,-3.37,-4.05,-4.01,0,*51
1522544513.16,64427,8.94,71668.0,-3.37,-4.01,-4.01,0,*54
1522544514.39,64428,8.88,71664.8,-3.35,-3.95,-4.01,0,*53
1522544515.62,64429,8.94,71666.8,-3.35,-4.01,-3.95,0,*52
1522544516.84,64430,8.88,71664.0,-3.37,-4.05,-4.05,0,*52
1522544518.09,64431,8.94,71666.0,-3.37,-4.05,-4.01,0,*57
1522544519.32,64432,8.94,71670.8,-3.37,-4.05,-4.05,0,*50
1522544520.54,64433,8.94,71670.0,-3.37,-4.05,-4.05,0,*51
1522544521.79,64434,8.94,71664.0,-3.37,-4.05,-4.01,0,*52
1522544523.05,64435,8.88,71664.0,-3.37,-4.01,-4.05,0,*53
1522544524.3,64436,8.94,71670.3,-3.37,-4.05,-4.01,0,*50
1522544525.55,64437,8.94,71664.5,-3.37,-4.05,-4.01,0,*51
1522544526.8,64438,8.94,71670.8,-3.37,-4.13,-4.01,0,*59
1522544528.02,64439,8.94,71664.0,-3.37,-4.05,-4.05,0,*5B
1522544529.27,64440,8.94,71670.3,-3.37,-4.05,-4.01,0,*51
1522544530.49,64441,8.94,71664.5,-3.39,-4.05,-4.01,0,*5E
1522544531.72,64442,8.94,71664.3,-3.37,-4.05,-4.05,0,*57
1522544532.94,64443,8.94,71666.0,-3.37,-4.05,-4.05,0,*56
1522544534.2,64444,8.94,71664.8,-3.37,-4.01,-4.05,0,*55
1522544535.42,64445,8.94,71664.8,-3.37,-4.05,-4.05,0,*50
1522544536.67,64446,8.94,71666.3,-3.37,-4.05,-4.01,0,*57
1522544537.92,64447,8.94,71668.0,-3.37,-4.13,-4.01,0,*51
1522544539.14,64448,8.94,71660.8,-3.37,-4.05,-4.05,0,*5D
1522544540.37,64449,8.94,71662.5,-3.37,-4.05,-4.05,0,*5C
1522544541.63,64450,8.94,71666.8,-3.37,-4.01,-4.05,0,*50
1522544542.87,64451,8.88,71662.5,-3.37,-4.05,-4.01,0,*51
1522544544.16,64452,8.94,71664.5,-3.37,-4.01,-4.01,0,*56
1522544545.41,64453,8.94,71664.8,-3.37,-4.05,-4.01,0,*53
1522544546.69,64454,8.88,71660.3,-3.37,-4.01,-4.01,0,*50
1522544547.91,64455,8.94,71666.5,-3.39,-4.05,-4.01,0,*5B
1522544549.16,64456,8.94,71664.0,-3.37,-4.05,-4.01,0,*56
1522544550.44,64457,8.94,71664.0,-3.37,-4.01,-4.01,0,*53
1522544551.72,64458,8.94,71664.5,-3.37,-4.01,-4.01,0,*5C
1522544552.94,64459,8.94,71664.0,-3.37,-4.05,-4.05,0,*5D
1522544554.16,64460,8.94,71662.8,-3.39,-4.05,-4.01,0,*5D
1522544555.38,64461,8.94,71664.3,-3.39,-4.05,-4.01,0,*5C
1522544556.61,64462,8.94,71664.5,-3.37,-4.05,-4.05,0,*55
1522544557.86,64463,8.94,71664.8,-3.37,-4.05,-4.01,0,*50
1522544559.14,64464,8.94,71662.3,-3.37,-4.01,-4.01,0,*53
1522544560.36,64465,8.94,71666.3,-3.37,-4.05,-4.05,0,*52
1522544561.64,64466,8.88,71660.8,-3.37,-4.01,-4.01,0,*51
1522544562.86,64467,8.94,71664.5,-3.39,-4.05,-4.01,0,*5A
1522544564.14,64468,8.94,71666.0,-3.37,-4.01,-4.01,0,*5F
1522544565.39,64469,8.94,71662.0,-3.37,-4.05,-4.01,0,*5A
1522544566.65,64470,8.94,71664.8,-3.39,-4.01,-4.01,0,*58
1522544567.87,64471,8.94,71660.5,-3.39,-4.05,-4.01,0,*5D
1522544569.12,64472,8.94,71660.3,-3.39,-4.01,-4.01,0,*5A
1522544570.4,64473,8.88,71660.5,-3.37,-4.01,-4.01,0,*55
1522544571.59,64474,8.94,71660.3,-3.39,-4.05,-4.05,0,*5C
1522544572.84,64475,8.94,71662.5,-3.37,-4.05,-4.01,0,*57
1522544574.09,64476,8.94,71660.8,-3.37,-4.05,-4.01,0,*54
1522544575.32,64477,8.94,71662.0,-3.37,-4.05,-4.05,0,*51
1522544576.57,64478,8.94,71660.5,-3.37,-4.05,-4.01,0,*5A
1522544577.82,64479,8.94,71662.5,-3.37,-4.05,-4.01,0,*5B
1522544579.07,64480,8.94,71660.5,-3.39,-4.01,-4.01,0,*57
1522544580.29,64481,8.94,71660.3,-3.37,-4.05,-4.05,0,*58
1522544581.52,64482,8.94,71662.0,-3.39,-4.01,-4.05,0,*51
1522544582.71,64483,8.94,71662.8,-3.39,-4.05,-4.05,0,*54
1522544583.94,64484,8.94,71660.8,-3.37,-4.05,-4.05,0,*5D
1522544585.16,64485,8.94,71660.3,-3.37,-4.05,-4.05,0,*5C
1522544586.41,64486,8.94,71662.5,-3.37,-4.05,-4.01,0,*5B
1522544587.64,64487,8.94,71660.3,-3.37,-4.05,-4.05,0,*5E
1522544588.86,64488,8.94,71660.3,-3.37,-4.05,-4.05,0,*51
1522544590.05,64489,8.94,71654.3,-3.39,-4.05,-4.05,0,*5E
1522544591.28,64490,8.94,71658.8,-3.39,-4.01,-4.05,0,*52
1522544592.51,64491,8.94,71658.0,-3.37,-4.13,-4.05,0,*5E
1522544593.73,64492,8.94,71652.8,-3.37,-4.05,-4.05,0,*5A
1522544594.95,64493,8.94,71646.5,-3.39,-4.05,-4.01,0,*51
1522544596.17,64494,8.88,71646.8,-3.37,-4.05,-4.05,0,*5C
1522544597.37,64495,8.94,71652.3,-3.39,-4.05,-4.05,0,*53
1522544598.57,64496,8.94,71646.0,-3.39,-4.05,-4.05,0,*50
1522544599.84,64497,8.94,71648.5,-3.37,-4.01,-4.01,0,*5F
1522544601.1,64498,8.94,71654.3,-3.37,-4.05,-4.01,0,*54
1522544602.32,64499,8.94,71650.0,-3.39,-4.05,-4.01,0,*5B
1522544603.54,64500,8.94,71644.8,-3.39,-4.05,-4.01,0,*5A
1522544604.73,64501,8.94,71648.3,-3.39,-4.05,-4.05,0,*5F
1522544605.93,64502,8.94,71646.5,-3.39,-4.05,-4.05,0,*5C
1522544607.12,64503,8.94,71652.8,-3.39,-4.05,-4.05,0,*5D
1522544608.31,64504,8.94,71654.0,-3.39,-4.05,-4.05,0,*5A
1522544609.54,64505,8.94,71652.8,-3.37,-4.05,-4.05,0,*55
1522544610.79,64506,8.94,71652.8,-3.39,-4.01,-4.01,0,*58
1522544612.04,64507,8.94,71652.3,-3.37,-4.05,-4.01,0,*53
1522544613.29,64508,8.94,71654.3,-3.37,-4.05,-4.01,0,*5C
1522544614.52,64509,8.94,71654.0,-3.37,-4.05,-4.05,0,*59
1522544615.77,64510,8.94,71652.5,-3.39,-4.01,-4.01,0,*5F
1522544617.02,64511,8.94,71654.3,-3.37,-4.01,-4.05,0,*54
1522544618.25,64512,8.94,71652.5,-3.37,-4.05,-4.05,0,*53
1522544619.44,64513,8.94,71648.8,-3.39,-4.05,-4.05,0,*5C
1522544620.66,64514,8.94,71648.3,-3.39,-4.05,-4.01,0,*5F
1522544621.91,64515,8.94,71652.0,-3.39,-4.01,-4.01,0,*5A
1522544623.11,64516,8.94,71654.0,-3.39,-4.05,-4.05,0,*59
1522544624.3,64517,8.94,71652.8,-3.39,-4.05,-4.05,0,*58
1522544625.53,64518,8.94,71652.0,-3.39,-4.01,-4.05,0,*53
1522544626.72,64519,8.94,71656.5,-3.39,-4.05,-4.05,0,*56
1522544627.92,64520,8.94,71658.8,-3.39,-4.05,-4.05,0,*5C
1522544629.17,64521,8.94,71656.8,-3.39,-4.01,-4.01,0,*5D
1522544630.36,64522,8.94,71656.3,-3.39,-4.05,-4.05,0,*5E
1522544631.58,64523,8.94,71660.0,-3.39,-4.05,-4.01,0,*5B
1522544632.81,64524,8.94,71658.0,-3.37,-4.05,-4.05,0,*56
1522544634.01,64525,8.94,71660.8,-3.39,-4.13,-3.91,0,*54
1522544635.23,64526,8.94,71658.5,-3.39,-4.05,-4.01,0,*5E
1522544636.45,64527,8.94,71658.3,-3.39,-4.05,-4.01,0,*5F
1522544637.7,64528,8.94,71656.5,-3.37,-4.05,-4.01,0,*5E
1522544638.92,64529,8.94,71658.0,-3.39,-4.05,-4.01,0,*51
1522544640.11,64530,8.94,71660.5,-3.39,-4.05,-4.05,0,*5D
1522544641.31,64531,8.94,71660.3,-3.39,-4.05,-4.05,0,*5C
1522544642.53,64532,8.94,71660.5,-3.39,-4.01,-4.05,0,*5B
1522544643.78,64533,8.94,71660.5,-3.39,-4.01,-4.01,0,*5E
1522544645.0,64534,8.94,71660.5,-3.39,-4.05,-4.01,0,*5D
1522544646.22,64535,8.94,71662.8,-3.39,-4.05,-4.01,0,*5C
1522544647.5,64536,8.94,71662.8,-3.37,-4.01,-4.01,0,*55
1522544648.73,64537,8.94,71658.3,-3.37,-4.05,-4.05,0,*54
1522544649.92,64538,8.94,71662.5,-3.39,-4.05,-4.05,0,*55
1522544651.14,64539,8.94,71658.8,-3.39,-4.13,-4.01,0,*57
1522544652.4,64540,8.94,71660.0,-3.39,-4.01,-4.01,0,*5A
1522544653.61,64541,8.94,71660.5,-3.39,-4.05,-4.01,0,*5F
1522544654.81,64542,8.94,71660.5,-3.39,-4.05,-4.05,0,*58
1522544656.03,64543,8.94,71662.3,-3.39,-4.05,-4.01,0,*5D
1522544657.28,64544,8.94,71658.8,-3.39,-4.01,-4.01,0,*5E
1522544658.48,64545,8.94,71656.8,-3.39,-4.13,-4.05,0,*58
1522544659.67,64546,8.94,71658.5,-3.39,-4.05,-4.13,0,*5B
1522544660.89,64547,8.94,71660.3,-3.43,-4.05,-4.05,0,*50
1522544662.09,64548,8.94,71660.8,-3.39,-4.09,-4.05,0,*5E
1522544663.28,64549,8.94,71658.5,-3.39,-4.05,-4.05,0,*53
1522544664.48,64550,8.94,71662.5,-3.39,-4.05,-4.05,0,*5B
1522544665.7,64551,8.94,71656.5,-3.37,-4.05,-4.05,0,*54
1522544666.9,64552,8.94,71658.8,-3.39,-4.05,-4.05,0,*59
1522544668.09,64553,8.94,71658.0,-3.39,-4.05,-4.05,0,*58
1522544669.29,64554,8.94,71656.5,-3.39,-4.05,-4.05,0,*5F
1522544670.48,64555,8.94,71660.0,-3.39,-4.05,-4.05,0,*5E
1522544671.71,64556,8.94,71662.3,-3.37,-4.05,-4.05,0,*53
1522544672.9,64557,8.94,71658.8,-3.39,-4.05,-4.05,0,*5C
1522544674.12,64558,8.94,71656.3,-3.43,-4.17,-4.09,0,*51
1522544675.34,64559,8.94,71658.8,-3.43,-4.17,-4.05,0,*5C
1522544676.56,64560,8.94,71658.0,-3.43,-4.09,-4.09,0,*55
1522544677.78,64561,8.94,71660.0,-3.43,-4.09,-4.09,0,*54
1522544678.97,64562,8.94,71658.8,-3.39,-4.13,-4.05,0,*5D
1522544680.19,64563,8.94,71658.5,-3.39,-4.05,-4.01,0,*5F
1522544681.41,64564,8.94,71658.5,-3.43,-4.05,-4.05,0,*51
1522544682.63,64565,8.94,71662.8,-3.43,-4.05,-4.09,0,*5C
1522544683.83,64566,8.94,71660.8,-3.45,-4.21,-4.21,0,*55
1522544685.05,64567,8.94,71660.8,-3.43,-4.09,-4.05,0,*5E
1522544686.27,64568,8.94,71656.5,-3.39,-4.05,-4.01,0,*54
1522544687.53,64569,8.94,71658.0,-3.37,-4.01,-4.05,0,*5B
1522544688.75,64570,8.94,71660.0,-3.39,-4.05,-4.01,0,*5D
1522544689.97,64571,8.94,71656.3,-3.43,-4.09,-4.09,0,*55
1522544691.19,64572,8.94,71662.3,-3.43,-4.09,-4.09,0,*56
1522544692.38,64573,8.94,71660.5,-3.45,-4.13,-4.13,0,*51
1522544693.6,64574,8.94,71660.8,-3.43,-4.09,-4.09,0,*50
1522544694.82,64575,8.94,71656.5,-3.37,-4.05,-4.05,0,*52
1522544696.02,64576,8.94,71658.3,-3.45,-4.13,-4.13,0,*54
1522544697.24,64577,8.94,71658.3,-3.43,-4.05,-4.09,0,*5F
1522544698.46,64578,8.94,71662.3,-3.43,-4.09,-4.09,0,*5C
1522544699.66,64579,8.94,71660.8,-3.45,-4.13,-4.21,0,*5A
1522544700.88,64580,8.94,71658.3,-3.43,-4.17,-4.05,0,*58
1522544702.09,64581,8.94,71662.3,-3.43,-4.17,-4.09,0,*55
1522544703.31,64582,8.94,71660.0,-3.43,-4.09,-4.05,0,*55
1522544704.53,64583,8.94,71660.3,-3.43,-4.09,-4.09,0,*58
1522544705.75,64584,8.94,71658.5,-3.43,-4.09,-4.05,0,*53
1522544706.97,64585,8.94,71660.8,-3.43,-4.09,-4.09,0,*5E
1522544708.19,64586,8.94,71660.3,-3.43,-4.09,-4.09,0,*5D
1522544709.41,64587,8.94,71662.5,-3.43,-4.09,-4.09,0,*5C
1522544710.62,64588,8.94,71660.5,-3.43,-4.17,-4.09,0,*5C
1522544711.84,64589,8.94,71662.0,-3.43,-4.09,-4.05,0,*5E
1522544713.06,64590,8.94,71660.5,-3.43,-4.09,-4.09,0,*5A
1522544714.28,64591,8.94,71662.5,-3.43,-4.09,-4.09,0,*5B
1522544715.5,64592,8.94,71660.3,-3.43,-4.05,-4.09,0,*54
1522544716.72,64593,8.94,71660.8,-3.43,-4.17,-4.09,0,*56
1522544717.94,64594,8.94,71658.0,-3.43,-4.09,-4.09,0,*5E
1522544719.13,64595,8.94,71658.0,-3.45,-4.09,-4.09,0,*59
1522544720.35,64596,8.94,71660.3,-3.43,-4.17,-4.09,0,*53
1522544721.56,64597,8.94,71658.8,-3.43,-4.09,-4.09,0,*5D
1522544722.78,64598,8.94,71656.5,-3.43,-4.09,-4.09,0,*52
1522544724.0,64599,8.94,71656.0,-3.43,-4.17,-4.09,0,*5C
1522544725.22,64600,8.94,71656.3,-3.43,-4.09,-4.17,0,*5F
1522544726.44,64601,8.94,71656.3,-3.43,-4.09,-4.05,0,*5D
1522544727.66,64602,8.94,71660.0,-3.43,-4.09,-4.09,0,*52
1522544728.87,64603,8.94,71660.8,-3.43,-4.17,-4.09,0,*5C
1522544730.08,64604,8.94,71656.8,-3.45,-4.21,-4.13,0,*53
1522544731.29,64605,8.94,71658.0,-3.43,-4.17,-4.17,0,*55
1522544732.51,64606,8.94,71658.8,-3.43,-4.17,-4.09,0,*59
1522544733.73,64607,8.94,71656.5,-3.43,-4.09,-4.05,0,*5B
1522544734.92,64608,8.94,71656.3,-3.45,-4.13,-4.13,0,*5E
1522544736.12,64609,8.94,71652.8,-3.45,-4.13,-4.13,0,*5F
1522544737.34,64610,8.94,71656.5,-3.43,-4.17,-4.09,0,*5E
1522544738.55,64611,8.94,71658.3,-3.43,-4.09,-4.09,0,*50
1522544739.75,64612,8.94,71656.0,-3.45,-4.13,-4.13,0,*55
1522544740.97,64613,8.94,71658.5,-3.43,-4.09,-4.09,0,*52
1522544742.16,64614,8.94,71656.3,-3.45,-4.09,-4.05,0,*5F
1522544743.38,64615,8.94,71652.3,-3.43,-4.09,-4.09,0,*54
1522544744.57,64616,8.94,71656.5,-3.45,-4.13,-4.13,0,*51
1522544745.78,64617,8.94,71656.3,-3.45,-4.21,-4.13,0,*51
1522544746.98,64618,8.94,71654.3,-3.45,-4.21,-4.09,0,*55
1522544748.18,64619,8.94,71654.8,-3.45,-4.21,-4.13,0,*5F
1522544749.38,64620,8.94,71654.5,-3.45,-4.21,-4.13,0,*55
1522544750.59,64621,8.94,71652.5,-3.45,-4.21,-4.21,0,*55
1522544751.78,64622,8.94,71656.5,-3.45,-4.13,-4.13,0,*56
1522544753.0,64623,8.94,71652.0,-3.43,-4.17,-4.09,0,*5E
1522544754.2,64624,8.94,71658.3,-3.45,-4.21,-4.13,0,*51
1522544755.42,64625,8.94,71654.5,-3.43,-4.09,-4.09,0,*57
1522544756.63,64626,8.94,71656.5,-3.43,-4.09,-4.17,0,*5B
1522544757.84,64627,8.94,71654.5,-3.45,-4.21,-4.13,0,*52
1522544759.06,64628,8.94,71654.8,-3.43,-4.21,-4.09,0,*50
1522544760.26,64629,8.94,71652.8,-3.45,-4.13,-4.13,0,*5D
1522544761.46,64630,8.94,71654.0,-3.45,-4.21,-4.13,0,*54
1522544762.66,64631,8.94,71654.3,-3.45,-4.21,-4.13,0,*55
1522544763.86,64632,8.94,71654.8,-3.45,-4.09,-4.13,0,*5C
1522544765.06,64633,8.94,71658.0,-3.45,-4.21,-4.13,0,*57
1522544766.26,64634,8.94,71656.3,-3.45,-4.21,-4.09,0,*5B
1522544767.46,64635,8.94,71654.5,-3.45,-4.21,-4.21,0,*50
1522544768.66,64636,8.94,71658.5,-3.45,-4.21,-4.13,0,*52
1522544769.86,64637,8.94,71654.8,-3.45,-4.13,-4.13,0,*52
1522544771.06,64638,8.94,71652.8,-3.45,-4.21,-4.13,0,*5C
1522544772.26,64639,8.94,71652.0,-3.45,-4.09,-4.13,0,*57
1522544773.46,64640,8.94,71658.3,-3.45,-4.21,-4.21,0,*52
1522544774.66,64641,8.94,71652.8,-3.45,-4.13,-4.13,0,*53
1522544775.85,64642,8.94,71652.5,-3.45,-4.13,-4.13,0,*50
1522544777.05,64643,8.94,71654.0,-3.45,-4.13,-4.13,0,*51
1522544778.25,64644,8.94,71658.8,-3.45,-4.21,-4.13,0,*57
1522544779.45,64645,8.94,71654.3,-3.45,-4.21,-4.13,0,*56
1522544780.66,64646,8.94,71652.5,-3.45,-4.21,-4.21,0,*54
1522544781.89,64647,8.94,71654.0,-3.47,-4.21,-4.21,0,*57
1522544783.1,64648,8.94,71654.5,-3.47,-4.13,-4.09,0,*53
1522544784.33,64649,8.94,71654.3,-3.47,-4.21,-4.13,0,*58
1522544785.55,64650,8.94,71654.8,-3.47,-4.21,-4.13,0,*50
1522544786.75,64651,8.94,71654.3,-3.45,-4.21,-4.13,0,*53
1522544787.95,64652,8.94,71650.8,-3.45,-4.13,-4.13,0,*51
1522544789.14,64653,8.94,71654.5,-3.45,-4.13,-4.13,0,*50
1522544790.34,64654,8.94,71652.5,-3.45,-4.21,-4.13,0,*56
1522544791.54,64655,8.94,71650.5,-3.45,-4.13,-4.09,0,*5D
1522544792.76,64656,8.94,71652.0,-3.47,-4.21,-4.13,0,*56
1522544793.99,64657,8.94,71654.0,-3.47,-4.21,-4.13,0,*57
1522544795.21,64658,8.94,71652.3,-3.47,-4.21,-4.13,0,*58
1522544796.44,64659,8.94,71654.8,-3.47,-4.21,-4.09,0,*52
1522544797.66,64660,8.94,71652.8,-3.47,-4.21,-4.09,0,*58
1522544798.85,64661,8.94,71650.3,-3.45,-4.13,-4.13,0,*51
1522544800.06,64662,8.94,71650.8,-3.45,-4.21,-4.13,0,*53
1522544801.28,64663,8.94,71654.8,-3.47,-4.21,-4.13,0,*50
1522544802.51,64664,8.88,71646.8,-3.47,-4.21,-4.21,0,*56
1522544803.74,64665,8.94,71650.3,-3.47,-4.21,-4.13,0,*56
1522544804.96,64666,8.94,71654.0,-3.47,-4.21,-4.09,0,*5E
1522544806.18,64667,8.94,71654.8,-3.47,-4.21,-4.13,0,*54
1522544807.41,64668,8.94,71650.5,-3.47,-4.21,-4.13,0,*5B
1522544808.63,64669,8.94,71652.8,-3.47,-4.13,-4.21,0,*5A
1522544809.86,64670,8.94,71650.8,-3.47,-4.21,-4.21,0,*53
1522544811.08,64671,8.94,71648.3,-3.47,-4.13,-4.13,0,*52
1522544812.3,64672,8.94,71652.5,-3.47,-4.21,-4.13,0,*50
1522544813.52,64673,8.94,71648.5,-3.47,-4.09,-4.13,0,*5B
1522544814.74,64674,8.94,71650.5,-3.47,-4.13,-4.13,0,*57
1522544815.96,64675,8.94,71650.5,-3.47,-4.13,-4.13,0,*56
1522544817.15,64676,8.94,71654.3,-3.49,-4.13,-4.17,0,*5F
1522544818.37,64677,8.94,71654.0,-3.47,-4.09,-4.13,0,*5F
1522544819.59,64678,8.94,71654.3,-3.47,-4.09,-4.13,0,*50
1522544820.8,64679,8.94,71650.8,-3.47,-4.13,-4.09,0,*51
1522544822.03,64680,8.94,71654.5,-3.47,-4.21,-4.13,0,*5D
1522544823.23,64681,8.94,71652.0,-3.45,-4.13,-4.21,0,*5E
1522544824.46,64682,8.94,71652.3,-3.47,-4.21,-4.21,0,*5E
1522544825.68,64683,8.94,71654.3,-3.47,-4.21,-4.13,0,*5E
1522544826.88,64684,8.94,71648.5,-3.49,-4.25,-4.17,0,*57
1522544828.1,64685,8.94,71652.0,-3.47,-4.13,-4.13,0,*59
1522544829.31,64686,8.94,71654.8,-3.47,-4.13,-4.13,0,*5A
1522544830.53,64687,8.94,71652.0,-3.47,-4.13,-4.13,0,*5B
1522544831.75,64688,8.94,71654.8,-3.47,-4.13,-4.13,0,*54
1522544832.98,64689,8.94,71654.3,-3.47,-4.21,-4.21,0,*55
1522544834.2,64690,8.94,71652.3,-3.47,-4.13,-4.13,0,*5D
1522544835.4,64691,8.94,71656.0,-3.49,-4.25,-4.13,0,*57
1522544836.62,64692,8.94,71652.8,-3.47,-4.13,-4.13,0,*5F
1522544837.84,64693,8.94,71652.3,-3.47,-4.09,-4.09,0,*5E
1522544839.05,64694,8.94,71654.8,-3.47,-4.13,-4.17,0,*5D
1522544840.27,64695,8.94,71654.5,-3.47,-4.13,-4.13,0,*58
1522544841.46,64696,8.94,71654.5,-3.49,-4.25,-4.17,0,*54
1522544842.69,64697,8.94,71656.5,-3.47,-4.21,-4.13,0,*5B
1522544843.91,64698,8.94,71654.5,-3.47,-4.13,-4.13,0,*55
1522544845.13,64699,8.94,71654.5,-3.47,-4.13,-4.21,0,*55
1522544846.35,64700,8.94,71652.0,-3.47,-4.21,-4.13,0,*54
1522544847.55,64701,8.94,71654.3,-3.49,-4.17,-4.13,0,*5E
1522544848.77,64702,8.94,71656.0,-3.47,-4.13,-4.09,0,*5C
1522544849.96,64703,8.94,71652.8,-3.49,-4.25,-4.17,0,*59
1522544851.19,64704,8.94,71654.8,-3.47,-4.21,-4.13,0,*50
1522544852.41,64705,8.94,71650.5,-3.47,-4.21,-4.13,0,*51
1522544853.63,64706,8.94,71652.8,-3.47,-4.13,-4.13,0,*53
1522544854.83,64707,8.94,71652.3,-3.49,-4.17,-4.17,0,*5C
1522544856.04,64708,8.94,71654.0,-3.47,-4.13,-4.13,0,*5D
1522544857.26,64709,8.94,71652.5,-3.47,-4.13,-4.13,0,*5C
1522544858.46,64710,8.94,71652.5,-3.49,-4.25,-4.17,0,*5B
1522544859.65,64711,8.94,71652.3,-3.49,-4.17,-4.17,0,*5B
1522544860.87,64712,8.94,71654.5,-3.47,-4.13,-4.21,0,*57
1522544862.1,64713,8.88,71650.5,-3.47,-4.13,-4.21,0,*56
1522544863.31,64714,8.94,71652.5,-3.47,-4.13,-4.13,0,*50
1522544864.53,64715,8.94,71652.3,-3.47,-4.13,-4.13,0,*51
1522544865.75,64716,8.88,71650.3,-3.47,-4.13,-4.13,0,*52
1522544866.98,64717,8.94,71650.5,-3.47,-4.21,-4.13,0,*52
1522544868.18,64718,8.88,71648.3,-3.49,-4.25,-4.25,0,*52
1522544869.38,64719,8.94,71652.8,-3.49,-4.25,-4.17,0,*52
1522544870.59,64720,8.94,71648.3,-3.47,-4.13,-4.13,0,*57
1522544871.79,64721,8.94,71654.5,-3.49,-4.13,-4.17,0,*5C
1522544872.99,64722,8.94,71652.8,-3.49,-4.25,-4.13,0,*5E
1522544874.19,64723,8.94,71648.0,-3.49,-4.17,-4.13,0,*5E
1522544875.38,64724,8.94,71652.0,-3.49,-4.17,-4.17,0,*5D
1522544876.58,64725,8.94,71652.0,-3.49,-4.25,-4.17,0,*5D
1522544877.77,64726,8.94,71654.5,-3.49,-4.25,-4.17,0,*5E
1522544878.99,64727,8.94,71650.3,-3.47,-4.13,-4.13,0,*50
1522544880.19,64728,8.94,71648.8,-3.49,-4.13,-4.09,0,*5A
1522544881.41,64729,8.94,71648.8,-3.47,-4.13,-4.13,0,*5E
1522544882.61,64730,8.94,71650.0,-3.49,-4.13,-4.13,0,*58
1522544883.8,64731,8.94,71646.8,-3.49,-4.17,-4.17,0,*59
1522544885.0,64732,8.94,71646.8,-3.49,-4.17,-4.25,0,*5B
1522544886.19,64733,8.94,71646.5,-3.49,-4.17,-4.17,0,*5B
1522544887.39,64734,8.94,71648.0,-3.49,-4.25,-4.13,0,*59
1522544888.61,64735,8.88,71646.3,-3.47,-4.13,-4.13,0,*53
1522544889.83,64736,8.94,71648.0,-3.47,-4.09,-4.13,0,*5B
1522544891.03,64737,8.94,71648.3,-3.49,-4.25,-4.17,0,*5E
1522544892.24,64738,8.94,71646.5,-3.47,-4.13,-4.13,0,*5E
1522544893.46,64739,8.94,71648.8,-3.47,-4.09,-4.13,0,*54
1522544894.65,64740,8.94,71648.5,-3.49,-4.17,-4.17,0,*5F
1522544895.85,64741,8.94,71648.3,-3.49,-4.17,-4.17,0,*5E
1522544897.06,64742,8.94,71650.3,-3.47,-4.13,-4.09,0,*58
1522544898.28,64743,8.94,71648.0,-3.47,-4.13,-4.09,0,*59
1522544899.5,64744,8.94,71650.5,-3.47,-4.13,-4.13,0,*55
1522544900.7,64745,8.94,71650.0,-3.49,-4.17,-4.13,0,*5E
1522544901.89,64746,8.94,71650.0,-3.49,-4.13,-4.13,0,*59
1522544903.09,64747,8.94,71650.8,-3.49,-4.17,-4.13,0,*5C
1522544904.29,64748,8.94,71646.8,-3.49,-4.17,-4.13,0,*53
1522544905.52,64749,8.94,71650.5,-3.47,-4.21,-4.13,0,*59
1522544906.71,64750,8.94,71648.5,-3.49,-4.17,-4.17,0,*5E
1522544907.9,64751,8.94,71648.8,-3.49,-4.17,-4.17,0,*5F
1522544909.09,64752,8.94,71648.8,-3.49,-4.17,-4.17,0,*5C
1522544910.3,64753,8.94,71650.3,-3.49,-4.25,-4.13,0,*58
1522544911.5,64754,8.94,71648.8,-3.49,-4.25,-4.13,0,*5F
1522544912.71,64755,8.94,71648.8,-3.47,-4.25,-4.17,0,*54
1522544913.94,64756,8.94,71650.3,-3.51,-4.25,-4.17,0,*50